Regional Weather Roundup
Issued by NWS

Home | Current Version | Previous Version | Graphics & Text | Print | Product List | Glossary Off
Versions: 1 2 3 4 5 6 7 8 9 10 11 12 13 14 15 16 17 18 19 20 21 22 23 24 25 26 27 28 29 30 31 32 33 34 35 36 37 38 39 40 41 42 43 44 45 46 47 48 49 50

000
ASUS43 KDMX 300508
RWRIA

WEATHER ROUNDUP FOR IOWA
NATIONAL WEATHER SERVICE DES MOINES IA
1200 AM CDT SAT JUL 30 2016

NOTE: "FAIR" INDICATES FEW OR NO CLOUDS BELOW 12,000 FEET WITH NO
SIGNIFICANT WEATHER AND/OR OBSTRUCTIONS TO VISIBILITY.

* - THESE STATIONS ARE NOT NWS STATIONS...THUS NOT UNDER NWS
QUALITY CONTROL.  THEY ALSO DO NOT REPORT WEATHER SUCH
AS PRECIPITATION OR FOG.

IAZ001>003-012>014-020>022-031>034-043>046-300600-
   NORTHWEST IOWA

CITY           SKY/WX    TMP DP  RH WIND       PRES   REMARKS
CARROLL *      PTCLDY    64  64 100 NW6       30.03S
CHEROKEE *     CLEAR     62  61  99 CALM      30.06R
DENISON *      CLEAR     61  61 100 CALM      30.02F
LE MARS *      CLEAR     63  61  94 CALM      30.06S
SHELDON *      CLEAR     57  57 100 CALM      30.06R
SIOUX CITY     CLOUDY    68  62  81 SE6       30.04S
SPENCER        CLEAR     56  54  93 CALM      30.06S
STORM LAKE *   CLEAR     63  61  94 CALM      30.06S
$$

IAZ055>058-069>071-079>083-090>094-300600-
   SOUTHWEST IOWA

CITY           SKY/WX    TMP DP  RH WIND       PRES   REMARKS
ATLANTIC *     PTCLDY    63  63 100 CALM      30.02F
CLARINDA *       N/A     63  63 100 MISG      30.05R
COUNCIL BLFS *   N/A     64  61  88 NE6       30.04S
CRESTON *      CLEAR     64  63  94 N6        30.03F
HARLAN  *      CLEAR     63  61  94 CALM      30.07S
LAMONI         CLEAR     64  63  96 NW3       30.00S
RED OAK *      CLEAR     64  63  94 N5        30.03S
SHENANDOAH *     N/A     64  64 100 CALM      30.03R
$$

IAZ047>049-059>061-072>074-084-300600-
   CENTRAL IOWA

CITY           SKY/WX    TMP DP  RH WIND       PRES   REMARKS
AMES           CLOUDY    67  67 100 CALM      30.01S
ANKENY *         N/A    N/A N/A N/A MISG        N/A
BOONE *        CLOUDY    68  64  88 NW3       30.01S
CHARITON *       N/A    N/A N/A N/A MISG        N/A
DES MOINES     PTCLDY    68  64  87 N5        30.00R
GRINNELL*      CLOUDY    67  64  88 N7        30.01S
KNOXVILLE *    CLOUDY    66  64  94 NW6       29.99R
MARSHALLTOWN   CLEAR     64  64 100 N3        30.00S
NEWTON *       CLOUDY    68  66  94 N7        30.00R
PELLA *        PTCLDY    64  63  96 NW3       30.01R
PERRY *          N/A     64  64  98 N5        30.01F
$$

IAZ004>006-015-016-023>025-035-036-300600-
   NORTH CENTRAL IOWA

CITY           SKY/WX    TMP DP  RH WIND       PRES   REMARKS
ALGONA *       CLOUDY    68  64  88 N3        30.04S
ESTHERVILLE    MOCLDY    57  57 100 NW5       30.05F
FORT DODGE *   CLOUDY    66  64  94 CALM      30.04S
MASON CITY     CLOUDY    67  64  90 N5        30.04S
FOREST CITY *  CLOUDY    64  61  88 N5        30.03F
IOWA FALLS *     N/A     66  63  89 N6        30.03S
$$

IAZ007>011-017>019-026>030-037>042-050>054-066-300600-
   NORTHEAST IOWA

CITY           SKY/WX    TMP DP  RH WIND       PRES   REMARKS
CEDAR RAPIDS   CLOUDY    68  68 100 NE6       29.98R
CHARLES CITY * CLOUDY    64  64 100 CALM      30.03S
CLINTON *      CLOUDY    68  66  93 E8        29.97S
DECORAH *      CLOUDY    66  66 100 CALM      30.02R
DUBUQUE        CLOUDY    67  65  93 NE8       30.00S
MONTICELLO *   MOCLDY    68  66  94 CALM      29.98R
OELWEIN *      CLOUDY    66  64  94 N5        30.02R
WATERLOO       MOCLDY    65  63  93 N5        29.99S
$$

IAZ064-065-067-068-078-300600-
   EAST CENTRAL IOWA

CITY           SKY/WX    TMP DP  RH WIND       PRES   REMARKS
DAVENPORT      CLOUDY    69  66  90 E8        29.97S
IOWA CITY      MOCLDY    69  66  90 N7        29.98R
MT. PLEASANT * PTCLDY    68  68 100 NW3       29.96S
MUSCATINE *    MOCLDY    68  66  94 NE6       29.96R
QUAD CITIES    CLOUDY    71  67  87 E6        29.95S
$$

IAZ062-063-075>077-085>089-095>099-300600-
   SOUTHEAST IOWA

CITY           SKY/WX    TMP DP  RH WIND       PRES   REMARKS
BURLINGTON     MOCLDY    68  67  96 N6        29.95R
FAIRFIELD *    CLOUDY    68  66  94 N7        29.96F
KEOKUK *       MOCLDY    68  66  94 NW6       29.95S
CENTERVILLE *  MOCLDY    66  64  94 CALM      30.01R
OTTUMWA        CLOUDY    66  64  93 N5        29.99R
WASHINGTON *   CLOUDY    68  66  94 N8        29.98R
$$

ABBREVIATIONS USED IN REMARKS
   TC - TEMPERATURES IN CELSIUS
  WCI - WIND CHILL INDEX
   HX - HEAT INDEX
  VSB - VISIBILITY
$$





USA.gov is the U.S. government's official web portal to all federal, state and local government web resources and services.